Location: Indian Hills
(32.9760°N, 85.9450°W)
Time: 00:17:39
(UTC+00:00)

CZ-4C R/B - Pass Details

Date: 09 December 2019
Orbit: 646 x 1355 km, 63.4° (Epoch: 20 January)

Event Time Altitude Azimuth Distance (km) Brightness Sun altitude
Rises 00:57:21 0° 195° (SSW) 2,964 5.4 -28.7°
Reaches altitude 10° 00:59:36 10° 189° (S) 2,090 4.4 -29.2°
Enters shadow 01:00:40 17° 185° (S) 1,696 3.9 -29.4°
